Time,TemperatureF,DewpointF,PressureIn,WindDirection,WindDirectionDegrees,WindSpeedMPH,WindSpeedGustMPH,Humidity,HourlyPrecipIn,Conditions,Clouds,dailyrainin,SoftwareType,DateUTC
2013-05-13 00:01:00,43.7,23.8,30.02,WNW,290,2.8,3.4,45,0.00,,CLR,0.00,VWS V13.01,2013-05-13 04:01:00,
2013-05-13 00:06:00,43.3,23.4,30.02,West,266,2.8,3.4,45,0.00,,CLR,0.00,VWS V13.01,2013-05-13 04:06:00,
2013-05-13 00:11:00,43.5,25.1,30.02,NW,309,0.0,0.0,48,0.00,,CLR,0.00,VWS V13.01,2013-05-13 04:11:00,
2013-05-13 00:16:00,43.2,24.8,30.02,WSW,256,2.8,3.4,48,0.00,,CLR,0.00,VWS V13.01,2013-05-13 04:16:00,
2013-05-13 00:21:00,42.8,24.5,30.02,WSW,256,0.0,0.0,48,0.00,,CLR,0.00,VWS V13.01,2013-05-13 04:21:00,
2013-05-13 00:26:00,42.3,24.0,30.02,WSW,256,0.0,0.0,48,0.00,,CLR,0.00,VWS V13.01,2013-05-13 04:26:00,
2013-05-13 00:31:00,41.7,24.9,30.02,North,353,0.0,0.0,51,0.00,,CLR,0.00,VWS V13.01,2013-05-13 04:31:00,
2013-05-13 00:36:00,41.0,24.3,30.02,NW,308,2.8,3.4,51,0.00,,CLR,0.00,VWS V13.01,2013-05-13 04:36:00,
2013-05-13 00:41:00,41.4,24.6,30.02,WSW,250,2.8,3.9,51,0.00,,CLR,0.00,VWS V13.01,2013-05-13 04:41:00,
2013-05-13 00:46:00,41.5,24.8,30.02,West,262,3.9,5.0,51,0.00,,CLR,0.00,VWS V13.01,2013-05-13 04:46:00,
2013-05-13 00:51:00,42.3,25.4,30.02,WSW,254,5.0,5.0,51,0.00,,CLR,0.00,VWS V13.01,2013-05-13 04:51:00,
2013-05-13 00:56:00,43.0,24.6,30.02,West,272,5.0,6.7,48,0.00,,CLR,0.00,VWS V13.01,2013-05-13 04:56:00,
2013-05-13 01:01:00,43.7,25.3,30.02,West,267,2.8,5.0,48,0.00,,CLR,0.00,VWS V13.01,2013-05-13 05:01:00,
2013-05-13 01:06:00,43.7,25.3,30.02,West,259,0.0,2.8,48,0.00,,CLR,0.00,VWS V13.01,2013-05-13 05:06:00,
2013-05-13 01:11:00,43.5,25.1,30.02,WSW,239,0.0,2.8,48,0.00,,CLR,0.00,VWS V13.01,2013-05-13 05:11:00,
2013-05-13 01:16:00,43.0,25.6,30.02,WSW,239,0.0,0.0,50,0.00,,CLR,0.00,VWS V13.01,2013-05-13 05:16:00,
2013-05-13 01:21:00,42.1,25.3,30.02,WNW,295,0.0,3.9,51,0.00,,CLR,0.00,VWS V13.01,2013-05-13 05:21:00,
2013-05-13 01:26:00,41.4,24.6,30.02,NW,320,0.0,0.0,51,0.00,,CLR,0.00,VWS V13.01,2013-05-13 05:26:00,
2013-05-13 01:31:00,41.0,24.3,30.02,West,272,3.4,3.9,51,0.00,,CLR,0.00,VWS V13.01,2013-05-13 05:31:00,
2013-05-13 01:36:00,41.4,24.6,30.02,West,262,3.9,3.9,51,0.00,,CLR,0.00,VWS V13.01,2013-05-13 05:36:00,
2013-05-13 01:41:00,42.1,25.3,30.02,West,262,0.0,0.0,51,0.00,,CLR,0.00,VWS V13.01,2013-05-13 05:41:00,
2013-05-13 01:46:00,42.3,25.4,30.02,WSW,244,3.9,3.9,51,0.00,,CLR,0.00,VWS V13.01,2013-05-13 05:46:00,
2013-05-13 01:51:00,42.3,25.4,30.02,West,260,0.0,0.0,51,0.00,,CLR,0.00,VWS V13.01,2013-05-13 05:51:00,
2013-05-13 01:56:00,42.3,25.4,30.02,WSW,251,0.0,0.0,51,0.00,,CLR,0.00,VWS V13.01,2013-05-13 05:56:00,
2013-05-13 02:01:00,41.9,25.1,30.02,WNW,282,6.2,6.2,51,0.00,,CLR,0.00,VWS V13.01,2013-05-13 06:01:00,
2013-05-13 02:06:00,41.9,25.1,30.02,West,270,2.8,3.9,51,0.00,,CLR,0.00,VWS V13.01,2013-05-13 06:06:00,
2013-05-13 02:11:00,42.1,25.3,30.02,WSW,258,3.4,3.4,51,0.00,,CLR,0.00,VWS V13.01,2013-05-13 06:11:00,
2013-05-13 02:16:00,42.1,25.3,30.02,WSW,248,0.0,3.9,51,0.00,,CLR,0.00,VWS V13.01,2013-05-13 06:16:00,
2013-05-13 02:21:00,41.9,25.1,30.02,WSW,248,3.4,3.4,51,0.00,,CLR,0.00,VWS V13.01,2013-05-13 06:21:00,
2013-05-13 02:26:00,41.5,24.8,30.02,West,264,3.4,4.5,51,0.00,,CLR,0.00,VWS V13.01,2013-05-13 06:26:00,
2013-05-13 02:31:00,41.2,24.4,30.02,WSW,253,3.9,5.0,51,0.00,,CLR,0.00,VWS V13.01,2013-05-13 06:31:00,
2013-05-13 02:36:00,41.0,24.3,30.02,West,262,2.8,4.5,51,0.00,,CLR,0.00,VWS V13.01,2013-05-13 06:36:00,
2013-05-13 02:41:00,41.0,24.3,30.02,West,266,6.7,6.7,51,0.00,,CLR,0.00,VWS V13.01,2013-05-13 06:41:00,
2013-05-13 02:46:00,41.4,24.6,30.02,West,277,3.9,6.2,51,0.00,,CLR,0.00,VWS V13.01,2013-05-13 06:46:00,
2013-05-13 02:51:00,41.5,24.8,30.02,West,277,5.0,10.9,51,0.00,,CLR,0.00,VWS V13.01,2013-05-13 06:51:00,
2013-05-13 02:56:00,42.1,25.3,30.02,West,267,4.5,6.7,51,0.00,,CLR,0.00,VWS V13.01,2013-05-13 06:56:00,
2013-05-13 03:01:00,42.3,25.4,30.02,West,275,0.0,3.9,51,0.00,,CLR,0.00,VWS V13.01,2013-05-13 07:01:00,
2013-05-13 03:06:00,42.1,25.3,30.02,West,266,0.0,2.8,51,0.00,,CLR,0.00,VWS V13.01,2013-05-13 07:06:00,
2013-05-13 03:11:00,41.9,25.1,30.02,WNW,300,0.0,0.0,51,0.00,,CLR,0.00,VWS V13.01,2013-05-13 07:11:00,
2013-05-13 03:16:00,41.5,24.8,30.02,ESE,113,0.0,3.4,51,0.00,,CLR,0.00,VWS V13.01,2013-05-13 07:16:00,
2013-05-13 03:21:00,41.2,24.4,30.02,ESE,122,3.4,3.4,51,0.00,,CLR,0.00,VWS V13.01,2013-05-13 07:21:00,
2013-05-13 03:26:00,40.6,23.9,30.02,South,179,0.0,3.4,51,0.00,,CLR,0.00,VWS V13.01,2013-05-13 07:26:00,
2013-05-13 03:31:00,40.3,24.5,30.02,South,182,0.0,0.0,53,0.00,,CLR,0.00,VWS V13.01,2013-05-13 07:31:00,
2013-05-13 03:36:00,39.9,24.6,30.02,WSW,237,3.9,4.5,54,0.00,,SCT065,0.00,VWS V13.01,2013-05-13 07:36:00,
2013-05-13 03:41:00,39.9,24.6,30.02,SSE,164,6.2,6.2,54,0.00,,SCT065,0.00,VWS V13.01,2013-05-13 07:41:00,
2013-05-13 03:46:00,40.6,25.3,30.02,South,177,2.8,5.0,54,0.00,,SCT065,0.00,VWS V13.01,2013-05-13 07:46:00,
2013-05-13 03:51:00,41.0,25.2,30.02,SW,231,3.4,5.0,53,0.00,,SCT065,0.00,VWS V13.01,2013-05-13 07:51:00,
2013-05-13 03:56:00,40.8,25.0,30.02,ENE,77,0.0,2.8,53,0.00,,SCT060,0.00,VWS V13.01,2013-05-13 07:56:00,
2013-05-13 04:01:00,40.5,24.7,30.02,NE,42,0.0,0.0,53,0.00,,SCT060,0.00,VWS V13.01,2013-05-13 08:01:00,
2013-05-13 04:06:00,40.3,24.5,30.02,NE,42,0.0,0.0,53,0.00,,SCT060,0.00,VWS V13.01,2013-05-13 08:06:00,
2013-05-13 04:11:00,39.7,24.5,30.02,NNE,25,3.9,4.5,54,0.00,,SCT060,0.00,VWS V13.01,2013-05-13 08:11:00,
2013-05-13 04:16:00,39.6,24.3,30.02,NNE,24,0.0,2.8,54,0.00,,CLR,0.00,VWS V13.01,2013-05-13 08:16:00,
2013-05-13 04:22:00,39.2,24.0,30.02,SE,127,0.0,0.0,54,0.00,,CLR,0.00,VWS V13.01,2013-05-13 08:22:00,
2013-05-13 04:27:00,38.8,23.6,30.02,SE,131,0.0,0.0,54,0.00,,CLR,0.00,VWS V13.01,2013-05-13 08:27:00,
2013-05-13 04:32:00,38.3,23.1,30.02,SE,131,0.0,0.0,54,0.00,,CLR,0.00,VWS V13.01,2013-05-13 08:32:00,
2013-05-13 04:37:00,37.8,22.6,30.02,SSW,213,0.0,0.0,54,0.00,,CLR,0.00,VWS V13.01,2013-05-13 08:37:00,
2013-05-13 04:42:00,37.2,22.6,30.02,SSW,213,0.0,0.0,55,0.00,,CLR,0.00,VWS V13.01,2013-05-13 08:42:00,
2013-05-13 04:47:00,36.9,22.2,30.02,SW,233,0.0,0.0,55,0.00,,CLR,0.00,VWS V13.01,2013-05-13 08:47:00,
2013-05-13 04:52:00,36.7,22.0,30.05,WSW,243,0.0,0.0,55,0.00,,CLR,0.00,VWS V13.01,2013-05-13 08:52:00,
2013-05-13 04:57:00,36.5,22.3,30.05,WSW,243,0.0,0.0,56,0.00,,CLR,0.00,VWS V13.01,2013-05-13 08:57:00,
2013-05-13 05:02:00,36.3,22.1,30.05,WSW,245,0.0,0.0,56,0.00,,CLR,0.00,VWS V13.01,2013-05-13 09:02:00,
2013-05-13 05:07:00,36.0,22.2,30.05,SW,230,0.0,2.8,57,0.00,,CLR,0.00,VWS V13.01,2013-05-13 09:07:00,
2013-05-13 05:12:00,35.8,22.0,30.05,NNW,334,0.0,3.4,57,0.00,,CLR,0.00,VWS V13.01,2013-05-13 09:12:00,
2013-05-13 05:17:00,35.8,22.0,30.05,NNW,334,0.0,0.0,57,0.00,,CLR,0.00,VWS V13.01,2013-05-13 09:17:00,
2013-05-13 05:22:00,35.8,22.0,30.05,NNW,334,0.0,0.0,57,0.00,,CLR,0.00,VWS V13.01,2013-05-13 09:22:00,
2013-05-13 05:27:00,35.8,22.9,30.05,West,274,0.0,0.0,59,0.00,,CLR,0.00,VWS V13.01,2013-05-13 09:27:00,
2013-05-13 05:32:00,35.6,22.7,30.05,WSW,255,0.0,0.0,59,0.00,,CLR,0.00,VWS V13.01,2013-05-13 09:32:00,
2013-05-13 05:37:00,35.6,22.7,30.05,WSW,255,0.0,0.0,59,0.00,,CLR,0.00,VWS V13.01,2013-05-13 09:37:00,
2013-05-13 05:42:00,35.4,22.9,30.05,WSW,255,0.0,0.0,60,0.00,,CLR,0.00,VWS V13.01,2013-05-13 09:42:00,
2013-05-13 05:47:00,35.4,22.9,30.05,West,269,0.0,3.4,60,0.00,,CLR,0.00,VWS V13.01,2013-05-13 09:47:00,
2013-05-13 05:52:00,35.2,22.8,30.05,West,270,0.0,0.0,60,0.00,,CLR,0.00,VWS V13.01,2013-05-13 09:52:00,
2013-05-13 05:57:00,35.1,22.6,30.05,West,270,0.0,0.0,60,0.00,,CLR,0.00,VWS V13.01,2013-05-13 09:57:00,
2013-05-13 06:02:00,35.2,23.1,30.05,WSW,257,0.0,3.9,61,0.00,,CLR,0.00,VWS V13.01,2013-05-13 10:02:00,
2013-05-13 06:07:00,35.2,23.1,30.05,WSW,257,0.0,0.0,61,0.00,,CLR,0.00,VWS V13.01,2013-05-13 10:07:00,
2013-05-13 06:12:00,35.2,23.5,30.05,WSW,257,0.0,0.0,62,0.00,,CLR,0.00,VWS V13.01,2013-05-13 10:12:00,
2013-05-13 06:17:00,35.4,24.5,30.05,WSW,257,0.0,0.0,64,0.00,,CLR,0.00,VWS V13.01,2013-05-13 10:17:00,
2013-05-13 06:22:00,35.6,24.6,30.05,WSW,257,0.0,0.0,64,0.00,,CLR,0.00,VWS V13.01,2013-05-13 10:22:00,
2013-05-13 06:27:00,35.6,24.6,30.05,WSW,257,0.0,0.0,64,0.00,,CLR,0.00,VWS V13.01,2013-05-13 10:27:00,
2013-05-13 06:32:00,35.6,25.0,30.05,WSW,257,0.0,0.0,65,0.00,,CLR,0.00,VWS V13.01,2013-05-13 10:32:00,
2013-05-13 06:37:00,35.8,24.8,30.05,WSW,257,0.0,0.0,64,0.00,,CLR,0.00,VWS V13.01,2013-05-13 10:37:00,
2013-05-13 06:42:00,36.0,25.4,30.05,WSW,257,0.0,0.0,65,0.00,,CLR,0.00,VWS V13.01,2013-05-13 10:42:00,
2013-05-13 06:47:00,36.1,25.5,30.05,WSW,257,0.0,0.0,65,0.00,,CLR,0.00,VWS V13.01,2013-05-13 10:47:00,
2013-05-13 06:52:00,36.5,25.9,30.05,WSW,257,0.0,0.0,65,0.00,,CLR,0.00,VWS V13.01,2013-05-13 10:52:00,
2013-05-13 06:57:00,36.7,26.0,30.05,WSW,257,0.0,0.0,65,0.00,,CLR,0.00,VWS V13.01,2013-05-13 10:57:00,
2013-05-13 07:02:00,37.0,26.8,30.05,WSW,257,0.0,0.0,66,0.00,,CLR,0.00,VWS V13.01,2013-05-13 11:02:00,
2013-05-13 07:07:00,37.4,27.1,30.08,WSW,257,0.0,0.0,66,0.00,,CLR,0.00,VWS V13.01,2013-05-13 11:07:00,
2013-05-13 07:12:00,37.8,27.4,30.08,WSW,257,0.0,0.0,66,0.00,,CLR,0.00,VWS V13.01,2013-05-13 11:12:00,
2013-05-13 07:17:00,38.3,28.0,30.08,WSW,257,0.0,0.0,66,0.00,,CLR,0.00,VWS V13.01,2013-05-13 11:17:00,
2013-05-13 07:22:00,38.7,28.7,30.08,WSW,257,0.0,0.0,67,0.00,,CLR,0.00,VWS V13.01,2013-05-13 11:22:00,
2013-05-13 07:27:00,39.2,29.9,30.08,WSW,257,0.0,0.0,69,0.00,,CLR,0.00,VWS V13.01,2013-05-13 11:27:00,
2013-05-13 07:32:00,39.7,30.1,30.08,WSW,251,3.4,4.5,68,0.00,,CLR,0.00,VWS V13.01,2013-05-13 11:32:00,
2013-05-13 07:37:00,40.3,30.6,30.08,WSW,256,0.0,0.0,68,0.00,,CLR,0.00,VWS V13.01,2013-05-13 11:37:00,
2013-05-13 07:42:00,40.8,30.7,30.08,WSW,245,0.0,0.0,67,0.00,,CLR,0.00,VWS V13.01,2013-05-13 11:42:00,
2013-05-13 07:47:00,41.5,31.0,30.08,South,169,0.0,3.4,66,0.00,,CLR,0.00,VWS V13.01,2013-05-13 11:47:00,
2013-05-13 07:52:00,42.3,31.7,30.08,West,259,3.4,3.4,66,0.00,,CLR,0.00,VWS V13.01,2013-05-13 11:52:00,
2013-05-13 07:57:00,42.8,31.9,30.08,SW,223,0.0,2.8,65,0.00,,CLR,0.00,VWS V13.01,2013-05-13 11:57:00,
2013-05-13 08:02:00,43.3,32.0,30.08,SW,215,0.0,0.0,64,0.00,,CLR,0.00,VWS V13.01,2013-05-13 12:02:00,
2013-05-13 08:07:00,43.7,32.0,30.08,SW,228,0.0,0.0,63,0.00,,CLR,0.00,VWS V13.01,2013-05-13 12:07:00,
2013-05-13 08:12:00,45.0,33.1,30.08,North,9,0.0,0.0,63,0.00,,CLR,0.00,VWS V13.01,2013-05-13 12:12:00,
2013-05-13 08:17:00,45.9,32.8,30.08,North,357,4.5,5.0,60,0.00,,CLR,0.00,VWS V13.01,2013-05-13 12:17:00,
2013-05-13 08:22:00,45.9,31.9,30.08,North,0,3.9,5.0,58,0.00,,CLR,0.00,VWS V13.01,2013-05-13 12:22:00,
2013-05-13 08:27:00,46.0,31.7,30.08,NE,41,0.0,0.0,57,0.00,,CLR,0.00,VWS V13.01,2013-05-13 12:27:00,
2013-05-13 08:32:00,47.3,31.5,30.08,North,7,2.8,5.0,54,0.00,,CLR,0.00,VWS V13.01,2013-05-13 12:32:00,
2013-05-13 08:37:00,47.1,31.4,30.08,ENE,61,0.0,0.0,54,0.00,,CLR,0.00,VWS V13.01,2013-05-13 12:37:00,
2013-05-13 08:42:00,47.3,31.5,30.08,North,353,3.9,3.9,54,0.00,,CLR,0.00,VWS V13.01,2013-05-13 12:42:00,
2013-05-13 08:47:00,48.2,31.9,30.08,West,271,0.0,0.0,53,0.00,,CLR,0.00,VWS V13.01,2013-05-13 12:47:00,
2013-05-13 08:52:00,49.1,32.7,30.11,West,271,3.9,3.9,53,0.00,,CLR,0.00,VWS V13.01,2013-05-13 12:52:00,
2013-05-13 08:57:00,50.0,33.1,30.11,West,277,2.8,3.9,52,0.00,,SCT070,0.00,VWS V13.01,2013-05-13 12:57:00,
2013-05-13 09:02:00,50.7,33.8,30.11,West,262,3.4,5.0,52,0.00,,SCT070,0.00,VWS V13.01,2013-05-13 13:02:00,
2013-05-13 09:07:00,50.7,33.3,30.11,NW,313,7.3,7.3,51,0.00,,SCT070,0.00,VWS V13.01,2013-05-13 13:07:00,
2013-05-13 09:12:00,50.0,32.6,30.11,North,5,4.5,7.8,51,0.00,,SCT070,0.00,VWS V13.01,2013-05-13 13:12:00,
2013-05-13 09:17:00,48.9,32.1,30.11,North,5,3.9,5.0,52,0.00,,BKN080,0.00,VWS V13.01,2013-05-13 13:17:00,
2013-05-13 09:22:00,48.6,31.8,30.11,North,4,5.0,5.0,52,0.00,,BKN080,0.00,VWS V13.01,2013-05-13 13:22:00,
2013-05-13 09:27:00,48.6,31.8,30.11,North,357,3.9,3.9,52,0.00,,BKN080,0.00,VWS V13.01,2013-05-13 13:27:00,
2013-05-13 09:32:00,48.6,31.3,30.11,NNE,12,9.5,9.5,51,0.00,,BKN080,0.00,VWS V13.01,2013-05-13 13:32:00,
2013-05-13 09:37:00,48.6,30.3,30.11,NNE,21,4.5,6.7,49,0.00,,BKN080,0.00,VWS V13.01,2013-05-13 13:37:00,
2013-05-13 09:42:00,49.6,31.3,30.11,WSW,257,3.9,3.9,49,0.00,,BKN080,0.00,VWS V13.01,2013-05-13 13:42:00,
2013-05-13 09:47:00,50.7,30.7,30.11,NW,326,7.8,7.8,46,0.00,,BKN080,0.00,VWS V13.01,2013-05-13 13:47:00,
2013-05-13 09:52:00,51.3,31.2,30.11,West,264,10.3,10.9,46,0.00,,BKN080,0.00,VWS V13.01,2013-05-13 13:52:00,
2013-05-13 09:57:00,50.9,30.9,30.11,WSW,251,6.7,10.9,46,0.00,,BKN080,0.00,VWS V13.01,2013-05-13 13:57:00,
2013-05-13 10:02:00,52.3,32.2,30.11,North,11,7.3,7.3,46,0.00,,BKN080,0.00,VWS V13.01,2013-05-13 14:02:00,
2013-05-13 10:07:00,54.0,33.1,30.11,WSW,241,6.2,6.2,45,0.00,,BKN080,0.00,VWS V13.01,2013-05-13 14:07:00,
2013-05-13 10:12:00,55.2,34.3,30.11,WNW,288,5.0,6.7,45,0.00,,BKN080,0.00,VWS V13.01,2013-05-13 14:12:00,
2013-05-13 10:17:00,56.1,35.1,30.11,WSW,251,6.7,7.3,45,0.00,,BKN080,0.00,VWS V13.01,2013-05-13 14:17:00,
2013-05-13 10:22:00,56.3,33.5,30.11,West,275,6.7,10.3,42,0.00,,BKN080,0.00,VWS V13.01,2013-05-13 14:22:00,
2013-05-13 10:27:00,56.5,33.7,30.11,West,271,7.8,10.9,42,0.00,,BKN080,0.00,VWS V13.01,2013-05-13 14:27:00,
2013-05-13 10:32:00,56.8,34.0,30.11,WSW,255,8.4,10.3,42,0.00,,BKN080,0.00,VWS V13.01,2013-05-13 14:32:00,
2013-05-13 10:37:00,57.6,35.8,30.11,West,275,6.7,8.4,44,0.00,,BKN080,0.00,VWS V13.01,2013-05-13 14:37:00,
2013-05-13 10:42:00,56.3,33.5,30.11,West,277,8.9,9.5,42,0.00,,BKN080,0.00,VWS V13.01,2013-05-13 14:42:00,
2013-05-13 10:47:00,55.0,33.0,30.11,West,259,10.9,10.9,43,0.00,,BKN080,0.00,VWS V13.01,2013-05-13 14:47:00,
2013-05-13 10:52:00,54.0,32.0,30.11,West,264,6.2,10.1,43,0.00,,BKN080,0.00,VWS V13.01,2013-05-13 14:52:00,
2013-05-13 10:57:00,54.0,32.0,30.11,ENE,62,0.0,9.5,43,0.00,,BKN080,0.00,VWS V13.01,2013-05-13 14:57:00,
2013-05-13 11:02:00,55.4,32.7,30.11,WSW,247,10.1,10.1,42,0.00,,BKN080,0.00,VWS V13.01,2013-05-13 15:02:00,
2013-05-13 11:07:00,56.3,33.5,30.11,SW,236,6.7,10.9,42,0.00,,BKN080,0.00,VWS V13.01,2013-05-13 15:07:00,
2013-05-13 11:12:00,57.0,34.2,30.11,West,261,10.3,10.9,42,0.00,,BKN080,0.00,VWS V13.01,2013-05-13 15:12:00,
2013-05-13 11:17:00,57.2,34.3,30.11,West,275,7.8,10.1,42,0.00,,BKN080,0.00,VWS V13.01,2013-05-13 15:17:00,
2013-05-13 11:22:00,57.6,34.7,30.11,WNW,288,7.8,10.9,42,0.00,,BKN080,0.00,VWS V13.01,2013-05-13 15:22:00,
2013-05-13 11:27:00,58.3,35.3,30.11,WSW,250,15.9,15.9,42,0.00,,BKN080,0.00,VWS V13.01,2013-05-13 15:27:00,
2013-05-13 11:32:00,58.5,35.5,30.11,NW,316,12.6,12.6,42,0.00,,BKN080,0.00,VWS V13.01,2013-05-13 15:32:00,
2013-05-13 11:37:00,59.2,36.1,30.11,WSW,244,13.7,16.5,42,0.00,,BKN080,0.00,VWS V13.01,2013-05-13 15:37:00,
2013-05-13 11:42:00,59.7,36.6,30.11,NW,305,7.3,7.8,42,0.00,,BKN080,0.00,VWS V13.01,2013-05-13 15:42:00,
2013-05-13 11:47:00,59.9,36.8,30.11,WNW,282,12.6,19.3,42,0.00,,BKN080,0.00,VWS V13.01,2013-05-13 15:47:00,
2013-05-13 11:52:00,59.5,36.5,30.11,West,279,10.1,13.1,42,0.00,,BKN080,0.00,VWS V13.01,2013-05-13 15:52:00,
2013-05-13 11:57:00,59.2,36.1,30.11,WNW,287,10.9,13.1,42,0.00,,BKN080,0.00,VWS V13.01,2013-05-13 15:57:00,
2013-05-13 12:02:00,58.6,35.6,30.11,WNW,291,13.7,13.7,42,0.00,,BKN080,0.00,VWS V13.01,2013-05-13 16:02:00,
2013-05-13 12:07:00,57.6,34.7,30.08,WSW,257,13.1,14.8,42,0.00,,SCT070,0.00,VWS V13.01,2013-05-13 16:07:00,
2013-05-13 12:12:00,57.6,34.7,30.08,West,274,10.9,13.7,42,0.00,,SCT070,0.00,VWS V13.01,2013-05-13 16:12:00,
2013-05-13 12:17:00,57.7,34.8,30.08,WNW,284,13.7,19.3,42,0.00,,SCT070,0.00,VWS V13.01,2013-05-13 16:17:00,
2013-05-13 12:22:00,57.9,35.0,30.08,North,3,4.5,7.3,42,0.00,,SCT070,0.00,VWS V13.01,2013-05-13 16:22:00,
2013-05-13 12:27:00,58.5,35.5,30.08,WSW,245,3.9,10.3,42,0.00,,BKN080,0.00,VWS V13.01,2013-05-13 16:27:00,
2013-05-13 12:32:00,58.5,35.5,30.08,SW,229,10.3,10.9,42,0.00,,BKN080,0.00,VWS V13.01,2013-05-13 16:32:00,
2013-05-13 12:37:00,58.5,35.5,30.08,West,266,9.5,9.5,42,0.00,,BKN080,0.00,VWS V13.01,2013-05-13 16:37:00,
2013-05-13 12:42:00,58.3,35.3,30.08,West,259,10.1,12.0,42,0.00,,BKN080,0.00,VWS V13.01,2013-05-13 16:42:00,
2013-05-13 12:47:00,58.1,35.2,30.08,NNW,335,5.0,7.8,42,0.00,,BKN080,0.00,VWS V13.01,2013-05-13 16:47:00,
2013-05-13 12:52:00,57.7,34.8,30.08,SSW,198,7.8,10.3,42,0.00,,BKN080,0.00,VWS V13.01,2013-05-13 16:52:00,
2013-05-13 12:57:00,57.6,34.7,30.08,WSW,258,3.9,6.2,42,0.00,,BKN090,0.00,VWS V13.01,2013-05-13 16:57:00,
2013-05-13 13:02:00,58.8,35.8,30.08,WNW,285,6.7,8.4,42,0.00,,BKN090,0.00,VWS V13.01,2013-05-13 17:02:00,
2013-05-13 13:07:00,59.4,36.3,30.08,West,266,13.1,13.1,42,0.00,,BKN090,0.00,VWS V13.01,2013-05-13 17:07:00,
2013-05-13 13:12:00,59.2,36.1,30.08,NW,304,13.1,13.1,42,0.00,,BKN090,0.00,VWS V13.01,2013-05-13 17:12:00,
2013-05-13 13:17:00,59.7,36.6,30.08,West,271,6.7,16.5,42,0.00,,BKN090,0.00,VWS V13.01,2013-05-13 17:17:00,
2013-05-13 13:22:00,59.7,36.6,30.08,West,262,13.7,16.5,42,0.00,,BKN090,0.00,VWS V13.01,2013-05-13 17:22:00,
2013-05-13 13:27:00,60.3,37.1,30.08,WNW,300,6.7,6.7,42,0.00,,BKN090,0.00,VWS V13.01,2013-05-13 17:27:00,
2013-05-13 13:32:00,60.1,36.9,30.08,West,279,13.1,19.3,42,0.00,,BKN090,0.00,VWS V13.01,2013-05-13 17:32:00,
2013-05-13 13:37:00,59.7,36.6,30.08,WSW,248,10.1,13.7,42,0.00,,BKN080,0.00,VWS V13.01,2013-05-13 17:37:00,
2013-05-13 13:42:00,59.5,36.5,30.08,WNW,289,9.5,13.1,42,0.00,,BKN080,0.00,VWS V13.01,2013-05-13 17:42:00,
2013-05-13 13:47:00,59.2,36.1,30.08,WSW,241,4.5,6.7,42,0.00,,BKN080,0.00,VWS V13.01,2013-05-13 17:47:00,
2013-05-13 13:52:00,59.4,36.3,30.08,WNW,299,10.1,10.3,42,0.00,,BKN080,0.00,VWS V13.01,2013-05-13 17:52:00,
2013-05-13 13:57:00,59.0,36.0,30.08,WSW,256,7.3,7.3,42,0.00,,OVC080,0.00,VWS V13.01,2013-05-13 17:57:00,
2013-05-13 14:02:00,58.5,35.5,30.08,West,262,7.8,10.9,42,0.00,,OVC080,0.00,VWS V13.01,2013-05-13 18:02:00,
2013-05-13 14:07:00,57.9,35.0,30.05,WSW,251,10.3,13.1,42,0.00,,OVC080,0.00,VWS V13.01,2013-05-13 18:07:00,
2013-05-13 14:12:00,57.6,34.7,30.05,WNW,299,13.1,13.1,42,0.00,,OVC080,0.00,VWS V13.01,2013-05-13 18:12:00,
2013-05-13 14:17:00,57.7,34.8,30.05,NNE,18,7.8,13.1,42,0.00,,BKN110,0.00,VWS V13.01,2013-05-13 18:17:00,
2013-05-13 14:22:00,58.1,35.2,30.05,North,357,10.3,10.3,42,0.00,,BKN110,0.00,VWS V13.01,2013-05-13 18:22:00,
2013-05-13 14:27:00,58.6,35.6,30.05,NW,326,10.1,10.9,42,0.00,,BKN110,0.00,VWS V13.01,2013-05-13 18:27:00,
2013-05-13 14:32:00,59.4,36.3,30.05,West,268,7.3,9.5,42,0.00,,BKN110,0.00,VWS V13.01,2013-05-13 18:32:00,
2013-05-13 14:37:00,59.9,36.8,30.05,West,279,7.3,15.9,42,0.00,,BKN110,0.00,VWS V13.01,2013-05-13 18:37:00,
2013-05-13 14:42:00,59.7,36.6,30.05,WSW,247,7.8,7.8,42,0.00,,BKN110,0.00,VWS V13.01,2013-05-13 18:42:00,
2013-05-13 14:47:00,59.9,36.8,30.05,WSW,244,6.2,9.5,42,0.00,,BKN110,0.00,VWS V13.01,2013-05-13 18:47:00,
2013-05-13 14:52:00,60.3,37.1,30.05,North,6,5.0,10.1,42,0.00,,BKN110,0.00,VWS V13.01,2013-05-13 18:52:00,
2013-05-13 14:57:00,60.4,37.3,30.05,North,357,5.0,5.0,42,0.00,,BKN080,0.00,VWS V13.01,2013-05-13 18:57:00,
2013-05-13 15:02:00,59.9,36.8,30.05,NE,45,10.3,13.1,42,0.00,,BKN080,0.00,VWS V13.01,2013-05-13 19:02:00,
2013-05-13 15:07:00,58.8,35.8,30.05,NNE,16,5.0,7.3,42,0.00,,BKN080,0.00,VWS V13.01,2013-05-13 19:07:00,
2013-05-13 15:12:00,59.0,36.0,30.05,WNW,290,6.7,10.1,42,0.00,,BKN080,0.00,VWS V13.01,2013-05-13 19:12:00,
2013-05-13 15:17:00,59.0,36.0,30.05,North,3,3.4,7.3,42,0.00,,OVC090,0.00,VWS V13.01,2013-05-13 19:17:00,
2013-05-13 15:22:00,58.5,35.5,30.05,NW,316,10.1,13.1,42,0.00,,OVC090,0.00,VWS V13.01,2013-05-13 19:22:00,
2013-05-13 15:27:00,57.9,35.0,30.05,North,8,7.8,7.8,42,0.00,,OVC090,0.00,VWS V13.01,2013-05-13 19:27:00,
2013-05-13 15:32:00,57.2,34.3,30.05,WSW,240,4.5,6.2,42,0.00,,OVC090,0.00,VWS V13.01,2013-05-13 19:32:00,
2013-05-13 15:37:00,57.6,34.7,30.05,NNW,333,6.7,7.8,42,0.00,,BKN090,0.00,VWS V13.01,2013-05-13 19:37:00,
2013-05-13 15:42:00,58.5,35.5,30.05,West,278,13.1,15.4,42,0.00,,BKN090,0.00,VWS V13.01,2013-05-13 19:42:00,
2013-05-13 15:47:00,59.2,36.1,30.05,WNW,286,7.8,9.5,42,0.00,,BKN090,0.00,VWS V13.01,2013-05-13 19:47:00,
2013-05-13 15:52:00,59.4,36.3,30.05,NW,307,10.9,12.0,42,0.00,,BKN090,0.00,VWS V13.01,2013-05-13 19:52:00,
2013-05-13 15:57:00,58.8,35.8,30.05,WNW,284,7.8,12.6,42,0.00,,OVC080,0.00,VWS V13.01,2013-05-13 19:57:00,
2013-05-13 16:02:00,57.7,34.8,30.05,West,263,6.2,8.4,42,0.00,,OVC080,0.00,VWS V13.01,2013-05-13 20:02:00,
2013-05-13 16:07:00,56.8,34.0,30.05,North,9,6.2,7.8,42,0.00,,OVC080,0.00,VWS V13.01,2013-05-13 20:07:00,
2013-05-13 16:12:00,56.1,33.4,30.05,North,0,18.2,18.2,42,0.00,,OVC080,0.00,VWS V13.01,2013-05-13 20:12:00,
2013-05-13 16:17:00,54.9,32.8,30.05,NNE,12,13.7,13.7,43,0.00,,BKN090,0.00,VWS V13.01,2013-05-13 20:17:00,
2013-05-13 16:22:00,54.5,32.5,30.05,NNW,335,7.8,13.7,43,0.00,,BKN090,0.00,VWS V13.01,2013-05-13 20:22:00,
2013-05-13 16:27:00,54.3,32.3,30.05,North,11,10.3,10.3,43,0.00,,BKN090,0.00,VWS V13.01,2013-05-13 20:27:00,
2013-05-13 16:33:00,54.5,32.5,30.05,WSW,249,4.5,7.3,43,0.00,,BKN090,0.00,VWS V13.01,2013-05-13 20:33:00,
2013-05-13 16:38:00,54.7,32.6,30.05,WSW,249,4.5,7.8,43,0.00,,SCT110,0.00,VWS V13.01,2013-05-13 20:38:00,
2013-05-13 16:43:00,54.7,32.6,30.05,WNW,286,9.5,10.9,43,0.00,,SCT110,0.00,VWS V13.01,2013-05-13 20:43:00,
2013-05-13 16:48:00,54.5,32.5,30.05,NW,322,7.8,7.8,43,0.00,,SCT110,0.00,VWS V13.01,2013-05-13 20:48:00,
2013-05-13 16:53:00,54.5,32.5,30.05,WNW,282,6.7,9.5,43,0.00,,SCT110,0.00,VWS V13.01,2013-05-13 20:53:00,
2013-05-13 16:58:00,54.7,32.6,30.05,WNW,289,7.8,10.1,43,0.00,,BKN080,0.00,VWS V13.01,2013-05-13 20:58:00,
2013-05-13 17:03:00,55.2,33.1,30.05,WSW,258,6.7,13.7,43,0.00,,BKN080,0.00,VWS V13.01,2013-05-13 21:03:00,
2013-05-13 17:08:00,55.9,33.2,30.05,North,353,13.1,15.9,42,0.00,,BKN080,0.00,VWS V13.01,2013-05-13 21:08:00,
2013-05-13 17:13:00,54.7,32.6,30.05,NNE,12,9.5,14.8,43,0.00,,BKN080,0.00,VWS V13.01,2013-05-13 21:13:00,
2013-05-13 17:18:00,54.0,32.0,30.05,North,4,10.3,13.1,43,0.00,,BKN070,0.00,VWS V13.01,2013-05-13 21:18:00,
2013-05-13 17:23:00,54.1,32.2,30.05,NNE,19,10.1,12.0,43,0.00,,BKN070,0.00,VWS V13.01,2013-05-13 21:23:00,
2013-05-13 17:28:00,54.3,32.3,30.05,NE,45,10.9,16.5,43,0.00,,BKN070,0.00,VWS V13.01,2013-05-13 21:28:00,
2013-05-13 17:33:00,53.8,31.8,30.05,North,357,6.7,9.5,43,0.00,,BKN070,0.00,VWS V13.01,2013-05-13 21:33:00,
2013-05-13 17:38:00,53.4,31.5,30.05,North,357,7.3,7.3,43,0.00,,SCT090,0.00,VWS V13.01,2013-05-13 21:38:00,
2013-05-13 17:43:00,53.1,31.2,30.05,NNW,346,8.9,8.9,43,0.00,,SCT090,0.00,VWS V13.01,2013-05-13 21:43:00,
2013-05-13 17:48:00,53.1,31.2,30.05,West,273,7.3,7.3,43,0.00,,SCT090,0.00,VWS V13.01,2013-05-13 21:48:00,
2013-05-13 17:53:00,53.1,31.2,30.05,West,266,18.2,23.5,43,0.00,,SCT090,0.00,VWS V13.01,2013-05-13 21:53:00,
2013-05-13 17:58:00,52.7,30.9,30.05,WSW,252,5.0,10.9,43,0.00,,SCT100,0.00,VWS V13.01,2013-05-13 21:58:00,
2013-05-13 18:03:00,52.7,30.9,30.05,NW,317,6.7,7.3,43,0.00,,SCT100,0.00,VWS V13.01,2013-05-13 22:03:00,
2013-05-13 18:08:00,53.2,31.3,30.05,NE,42,6.2,10.3,43,0.00,,SCT100,0.00,VWS V13.01,2013-05-13 22:08:00,
2013-05-13 18:13:00,54.1,32.2,30.05,NNW,343,10.1,10.1,43,0.00,,SCT100,0.00,VWS V13.01,2013-05-13 22:13:00,
2013-05-13 18:18:00,54.3,32.3,30.05,NNE,14,4.5,10.1,43,0.00,,-RA,0.00,VWS V13.01,2013-05-13 22:18:00,
2013-05-13 18:23:00,53.6,31.7,30.05,North,357,4.5,7.8,43,0.00,,-RA,0.00,VWS V13.01,2013-05-13 22:23:00,
2013-05-13 18:28:00,53.2,31.3,30.05,North,5,7.8,10.9,43,0.00,,-RA,0.00,VWS V13.01,2013-05-13 22:28:00,
2013-05-13 18:33:00,52.7,30.9,30.05,North,353,8.4,9.5,43,0.00,,-RA,0.00,VWS V13.01,2013-05-13 22:33:00,
2013-05-13 18:38:00,52.7,30.9,30.05,WSW,258,5.0,6.2,43,0.00,,SCT070,0.00,VWS V13.01,2013-05-13 22:38:00,
2013-05-13 18:43:00,52.3,30.5,30.05,NNW,346,5.0,5.6,43,0.00,,SCT070,0.00,VWS V13.01,2013-05-13 22:43:00,
2013-05-13 18:48:00,52.0,30.2,30.05,NNW,339,3.4,6.2,43,0.00,,SCT070,0.00,VWS V13.01,2013-05-13 22:48:00,
2013-05-13 18:53:00,51.8,30.0,30.05,West,275,0.0,3.4,43,0.00,,SCT070,0.00,VWS V13.01,2013-05-13 22:53:00,
2013-05-13 18:58:00,51.8,30.0,30.05,WSW,256,3.4,3.9,43,0.00,,SCT110,0.00,VWS V13.01,2013-05-13 22:58:00,
2013-05-13 19:03:00,52.0,30.2,30.05,WSW,256,3.4,5.0,43,0.00,,SCT110,0.00,VWS V13.01,2013-05-13 23:03:00,
2013-05-13 19:08:00,52.2,30.4,30.05,North,1,6.7,7.8,43,0.00,,SCT110,0.00,VWS V13.01,2013-05-13 23:08:00,
2013-05-13 19:13:00,52.7,30.9,30.05,North,10,10.1,10.9,43,0.00,,SCT110,0.00,VWS V13.01,2013-05-13 23:13:00,
2013-05-13 19:18:00,52.9,31.0,30.05,North,357,13.1,18.2,43,0.00,,CLR,0.00,VWS V13.01,2013-05-13 23:18:00,
2013-05-13 19:23:00,52.3,30.5,30.08,North,357,7.8,13.1,43,0.00,,CLR,0.00,VWS V13.01,2013-05-13 23:23:00,
2013-05-13 19:28:00,51.8,30.0,30.08,North,7,10.3,10.3,43,0.00,,CLR,0.00,VWS V13.01,2013-05-13 23:28:00,
2013-05-13 19:33:00,51.4,30.3,30.08,North,0,7.8,10.1,44,0.00,,CLR,0.00,VWS V13.01,2013-05-13 23:33:00,
2013-05-13 19:38:00,51.1,30.0,30.08,North,1,7.3,8.9,44,0.00,,SCT090,0.00,VWS V13.01,2013-05-13 23:38:00,
2013-05-13 19:43:00,50.7,29.6,30.08,North,357,10.3,10.3,44,0.00,,SCT090,0.00,VWS V13.01,2013-05-13 23:43:00,
2013-05-13 19:48:00,50.5,29.5,30.08,North,11,6.2,7.3,44,0.00,,SCT090,0.00,VWS V13.01,2013-05-13 23:48:00,
2013-05-13 19:53:00,50.2,29.1,30.08,North,357,7.3,7.8,44,0.00,,SCT090,0.00,VWS V13.01,2013-05-13 23:53:00,
2013-05-13 19:58:00,49.8,28.8,30.08,North,349,6.7,7.8,44,0.00,,SCT090,0.00,VWS V13.01,2013-05-13 23:58:00,
2013-05-13 20:03:00,49.3,28.3,30.08,NNE,14,3.9,5.0,44,0.00,,SCT090,0.00,VWS V13.01,2013-05-14 00:03:00,
2013-05-13 20:08:00,48.7,27.8,30.08,North,11,6.2,6.7,44,0.00,,SCT090,0.00,VWS V13.01,2013-05-14 00:08:00,
2013-05-13 20:13:00,48.4,27.5,30.08,North,357,8.4,10.9,44,0.00,,SCT090,0.00,VWS V13.01,2013-05-14 00:13:00,
2013-05-13 20:18:00,48.4,27.5,30.08,North,350,6.7,10.9,44,0.00,,SCT120,0.00,VWS V13.01,2013-05-14 00:18:00,
2013-05-13 20:23:00,48.4,27.5,30.08,North,357,6.7,8.4,44,0.00,,SCT120,0.00,VWS V13.01,2013-05-14 00:23:00,
2013-05-13 20:28:00,48.0,27.2,30.08,NNW,336,7.3,7.8,44,0.00,,SCT120,0.00,VWS V13.01,2013-05-14 00:28:00,
2013-05-13 20:33:00,47.8,27.0,30.08,North,2,3.9,9.5,44,0.00,,SCT120,0.00,VWS V13.01,2013-05-14 00:33:00,
2013-05-13 20:38:00,47.7,26.8,30.08,North,353,5.0,7.8,44,0.00,,SCT120,0.00,VWS V13.01,2013-05-14 00:38:00,
2013-05-13 20:43:00,47.5,26.7,30.08,North,353,3.4,7.8,44,0.00,,SCT120,0.00,VWS V13.01,2013-05-14 00:43:00,
2013-05-13 20:48:00,47.3,26.5,30.08,North,0,3.4,3.4,44,0.00,,SCT120,0.00,VWS V13.01,2013-05-14 00:48:00,
2013-05-13 20:53:00,46.8,26.0,30.11,North,353,3.4,4.5,44,0.00,,SCT120,0.00,VWS V13.01,2013-05-14 00:53:00,
2013-05-13 20:58:00,46.4,25.7,30.11,North,5,0.0,2.8,44,0.00,,CLR,0.00,VWS V13.01,2013-05-14 00:58:00,
2013-05-13 21:03:00,45.9,25.7,30.11,North,357,0.0,0.0,45,0.00,,CLR,0.00,VWS V13.01,2013-05-14 01:03:00,
2013-05-13 21:08:00,45.3,25.2,30.11,North,357,0.0,0.0,45,0.00,,CLR,0.00,VWS V13.01,2013-05-14 01:08:00,
2013-05-13 21:13:00,44.4,24.4,30.11,West,266,0.0,3.4,45,0.00,,CLR,0.00,VWS V13.01,2013-05-14 01:13:00,
2013-05-13 21:18:00,43.7,23.8,30.11,West,281,2.8,3.4,45,0.00,,CLR,0.00,VWS V13.01,2013-05-14 01:18:00,
2013-05-13 21:23:00,43.3,23.4,30.11,West,271,0.0,0.0,45,0.00,,CLR,0.00,VWS V13.01,2013-05-14 01:23:00,
2013-05-13 21:28:00,42.8,23.0,30.11,West,271,0.0,0.0,45,0.00,,CLR,0.00,VWS V13.01,2013-05-14 01:28:00,
2013-05-13 21:33:00,42.4,23.1,30.11,West,271,0.0,0.0,46,0.00,,CLR,0.00,VWS V13.01,2013-05-14 01:33:00,
2013-05-13 21:38:00,41.9,23.7,30.11,West,271,0.0,0.0,48,0.00,,CLR,0.00,VWS V13.01,2013-05-14 01:38:00,
2013-05-13 21:43:00,41.7,23.5,30.11,West,271,0.0,0.0,48,0.00,,CLR,0.00,VWS V13.01,2013-05-14 01:43:00,
2013-05-13 21:48:00,41.4,24.6,30.11,West,271,0.0,0.0,51,0.00,,CLR,0.00,VWS V13.01,2013-05-14 01:48:00,
2013-05-13 21:53:00,41.0,24.3,30.14,West,271,0.0,0.0,51,0.00,,CLR,0.00,VWS V13.01,2013-05-14 01:53:00,
2013-05-13 21:58:00,40.6,24.9,30.14,West,271,0.0,0.0,53,0.00,,CLR,0.00,VWS V13.01,2013-05-14 01:58:00,
2013-05-13 22:03:00,40.3,24.5,30.14,West,271,0.0,0.0,53,0.00,,CLR,0.00,VWS V13.01,2013-05-14 02:03:00,
2013-05-13 22:08:00,40.1,24.8,30.14,West,271,0.0,0.0,54,0.00,,CLR,0.00,VWS V13.01,2013-05-14 02:08:00,
2013-05-13 22:13:00,39.7,24.5,30.14,West,271,0.0,0.0,54,0.00,,CLR,0.00,VWS V13.01,2013-05-14 02:13:00,
2013-05-13 22:18:00,39.6,24.3,30.14,West,271,0.0,0.0,54,0.00,,CLR,0.00,VWS V13.01,2013-05-14 02:18:00,
2013-05-13 22:23:00,39.6,24.7,30.14,West,271,0.0,0.0,55,0.00,,CLR,0.00,VWS V13.01,2013-05-14 02:23:00,
2013-05-13 22:28:00,39.4,24.6,30.14,WNW,290,0.0,0.0,55,0.00,,CLR,0.00,VWS V13.01,2013-05-14 02:28:00,
2013-05-13 22:33:00,39.0,24.2,30.14,WNW,291,0.0,0.0,55,0.00,,CLR,0.00,VWS V13.01,2013-05-14 02:33:00,
2013-05-13 22:38:00,38.5,24.2,30.14,West,263,3.4,4.5,56,0.00,,SCT065,0.00,VWS V13.01,2013-05-14 02:38:00,
2013-05-13 22:43:00,38.1,23.8,30.14,West,262,0.0,0.0,56,0.00,,SCT065,0.00,VWS V13.01,2013-05-14 02:43:00,
2013-05-13 22:48:00,38.1,23.8,30.14,West,262,2.8,2.8,56,0.00,,SCT065,0.00,VWS V13.01,2013-05-14 02:48:00,
2013-05-13 22:53:00,38.1,23.8,30.14,West,262,0.0,0.0,56,0.00,,SCT065,0.00,VWS V13.01,2013-05-14 02:53:00,
2013-05-13 22:58:00,37.9,24.1,30.14,WNW,287,0.0,0.0,57,0.00,,CLR,0.00,VWS V13.01,2013-05-14 02:58:00,
2013-05-13 23:03:00,37.9,24.1,30.14,WNW,287,0.0,0.0,57,0.00,,CLR,0.00,VWS V13.01,2013-05-14 03:03:00,
2013-05-13 23:08:00,37.8,23.9,30.14,WSW,251,3.4,3.9,57,0.00,,CLR,0.00,VWS V13.01,2013-05-14 03:08:00,
2013-05-13 23:13:00,37.6,23.7,30.14,WSW,249,0.0,0.0,57,0.00,,CLR,0.00,VWS V13.01,2013-05-14 03:13:00,
2013-05-13 23:18:00,37.4,23.6,30.14,West,261,0.0,0.0,57,0.00,,CLR,0.00,VWS V13.01,2013-05-14 03:18:00,
2013-05-13 23:23:00,37.2,23.4,30.14,West,278,0.0,0.0,57,0.00,,CLR,0.00,VWS V13.01,2013-05-14 03:23:00,
2013-05-13 23:28:00,37.0,23.6,30.14,West,266,3.4,3.9,58,0.00,,CLR,0.00,VWS V13.01,2013-05-14 03:28:00,
2013-05-13 23:33:00,37.2,24.2,30.14,WSW,254,0.0,4.5,59,0.00,,CLR,0.00,VWS V13.01,2013-05-14 03:33:00,
2013-05-13 23:38:00,37.4,25.2,30.14,NNE,30,0.0,4.5,61,0.00,,CLR,0.00,VWS V13.01,2013-05-14 03:38:00,
2013-05-13 23:43:00,38.1,26.3,30.14,NW,325,0.0,2.8,62,0.00,,CLR,0.00,VWS V13.01,2013-05-14 03:43:00,
2013-05-13 23:48:00,38.7,26.4,30.14,NE,45,0.0,3.4,61,0.00,,CLR,0.00,VWS V13.01,2013-05-14 03:48:00,
2013-05-13 23:53:00,38.8,26.6,30.14,NE,45,0.0,0.0,61,0.00,,CLR,0.00,VWS V13.01,2013-05-14 03:53:00,
2013-05-13 23:58:00,38.8,26.2,30.14,NE,45,0.0,0.0,60,0.00,,CLR,0.00,VWS V13.01,2013-05-14 03:58:00,